Follow iAlert.com on twitter @ialertcom
Search For Active Alerts in Your Area  
  Hi Guest:  [ Sign-up / Services ] [ Login ]

Current weather by "City, St" or "zip code"  
 

Advertise Here

Current Conditions: Cherry Capital Airport, MI

Partly Cloudy


42.0 F

Last Updated on Apr 20 2018, 8:53 pm EDT
Humidity: 49%
Wind Speed: N 0.0 mph
Barometer 30.43 in
Dewpoint: 24.1 F
Visibility: 10.00 mi
Precip: --
Heat Index: NA
Wind Chill: NA
Current conditions at:

Cherry Capital Airport, MI (KTVC)

Lat: 44.73 Lon: 85.567

Local Radar Image active severe weather and emergency alerts image image weather storm and storm spotter reports image weather observation monitoring service image
Local
Radar
Active
Alerts
Storm Reports Obs
Monitoring

iAlert Weather and Emergency Alert Notification Services:


ialert severe weather and emergency alerts by text message and email ialert daily weather forecast by email and text message service ialert real-time weather-observation monitoring and alert notification service ialert storm report monitoring alert notification

Observation History for Cherry Capital Airport, MI


Time Wind
(mph)
Vis
(mi)
Weather Precip (in) Temperature (F) Relative
Humidity
Wind
Chill
(°F)
Heat
Index
(°F)
Pressure
Air Dwpt altimeter
(in)
sea level
(mb)
8:53 pm EDT N 0.0 10.00 Partly Cloudy -- 42.0 24.1 49% NA NA 30.43 1031.1
7:53 pm EDT N 0.0 10.00 Partly Cloudy -- 46.0 21.9 38% NA NA 30.43 1031.0
6:53 pm EDT N 0.0 10.00 Mostly Cloudy -- 46.0 23.0 40% NA NA 30.44 1031.6
5:53 pm EDT NE 6.9 10.00 Mostly Cloudy -- 47.0 23.0 39% 44 NA 30.45 1031.8
4:53 pm EDT NE 6.9 10.00 Mostly Cloudy -- 48.0 21.0 34% 45 NA 30.45 1031.9
3:53 pm EDT NE 6.9 10.00 Mostly Cloudy -- 49.0 19.0 31% 46 NA 30.46 1032.3
2:53 pm EDT NE 6.9 10.00 A Few Clouds -- 49.0 19.9 32% 46 NA 30.47 1032.6
1:53 pm EDT NE 6.9 10.00 A Few Clouds -- 48.0 18.0 30% 45 NA 30.48 1032.7
12:53 pm EDT NE 3.5 10.00 Fair -- 47.0 19.9 34% NA NA 30.48 1033.0
11:53 am EDT N 3.5 10.00 A Few Clouds -- 46.0 21.0 37% NA NA 30.48 1032.9
10:53 am EDT N 0.0 10.00 Fair -- 45.0 18.0 34% NA NA 30.48 1032.8
9:53 am EDT N 0.0 10.00 Fair -- 41.0 23.0 49% NA NA 30.48 1032.7
8:53 am EDT N 0.0 10.00 Fair -- 34.0 23.0 64% NA NA 30.47 1032.6
7:53 am EDT N 0.0 10.00 Fair -- 26.0 21.0 81% NA NA 30.46 1032.2
6:53 am EDT N 0.0 10.00 A Few Clouds -- 23.0 19.0 85% NA NA 30.45 1032.0
5:53 am EDT N 0.0 10.00 Fair -- 23.0 19.0 85% NA NA 30.43 1031.3
4:53 am EDT N 0.0 10.00 Fair -- 25.0 19.9 81% NA NA 30.41 1030.7
3:53 am EDT N 0.0 10.00 Fair -- 26.0 21.0 81% NA NA 30.40 1030.1
2:53 am EDT N 0.0 10.00 Fair -- 27.0 21.0 78% NA NA 30.40 1030.2
1:53 am EDT N 0.0 10.00 Fair -- 27.0 23.0 85% NA NA 30.40 1030.2
12:53 am EDT N 0.0 9.00 Fair -- 29.0 23.0 78% NA NA 30.39 1029.8
11:53 pm EDT N 0.0 10.00 Fair -- 30.0 23.0 75% NA NA 30.38 1029.4
10:53 pm EDT N 0.0 10.00 Fair -- 31.0 24.1 76% NA NA 30.37 1029.1

Regional Weather Observation


Bellaire, Antrim County Airport, MI (KACB)

Fair
35.0 F

Frankfort, Frankfort Dow Memorial Field Airport, MI (KFKS)

Fair
40.0 F

Charlevoix, Charlevoix Municipal Airport, MI (KCVX)

Fair
40.0 F

Wexford County Airport, MI (KCAD)

Fair
42.0 F

Manistee County - Blacker Airport, MI (KMBL)

Fair
40.0 F

Beaver Island, Beaver Island Airport, MI (KSJX)

Fair
40.0 F

Advertise Here